1499976000.53,20685,19.38,73930.0,-1.43,-38.73,-39.09,0,*53
1499976001.81,20686,19.38,73928.3,-1.43,-38.23,-38.67,0,*5C
1499976003.07,20687,19.38,73924.8,-1.43,-38.29,-38.73,0,*52
1499976004.35,20688,19.38,73926.5,-1.43,-38.29,-38.67,0,*58
1499976005.57,20689,19.38,73924.5,-1.45,-38.55,-39.09,0,*5D
1499976006.82,20690,19.38,73924.0,-1.43,-38.11,-38.61,0,*5C
1499976008.08,20691,19.38,73924.5,-1.43,-38.61,-39.03,0,*5F
1499976009.35,20692,19.38,73922.5,-1.45,-38.49,-38.79,0,*5C
1499976010.58,20693,19.38,73924.0,-1.43,-38.43,-38.73,0,*5B
1499976011.83,20694,19.38,73920.8,-1.45,-38.67,-39.29,0,*52
1499976013.12,20695,19.38,73926.3,-1.43,-38.49,-38.91,0,*5B
1499976014.36,20696,19.38,73924.0,-1.43,-38.61,-39.09,0,*52
1499976015.61,20697,19.38,73924.5,-1.43,-38.11,-38.61,0,*5B
1499976016.87,20698,19.38,73926.5,-1.43,-38.23,-38.61,0,*55
1499976018.08,20699,19.38,73924.8,-1.45,-38.43,-38.85,0,*5E
1499976019.37,20700,19.38,73926.8,-1.43,-38.49,-38.91,0,*56
1499976020.66,20701,19.38,73924.3,-1.43,-38.29,-38.67,0,*58
1499976021.92,20702,19.38,73926.3,-1.43,-37.93,-38.43,0,*53
1499976023.18,20703,19.38,73928.3,-1.45,-37.99,-38.49,0,*54
1499976024.41,20704,19.38,73930.5,-1.43,-38.43,-38.73,0,*54
1499976025.69,20705,19.38,73924.8,-1.43,-37.69,-38.11,0,*56
1499976026.98,20706,19.38,73926.8,-1.43,-38.11,-38.49,0,*58
1499976028.24,20707,19.38,73926.3,-1.39,-37.99,-38.35,0,*50
1499976029.49,20708,19.38,73930.0,-1.41,-38.11,-38.67,0,*58
1499976030.74,20709,19.38,73930.0,-1.41,-38.11,-38.49,0,*55
1499976031.99,20710,19.38,73928.0,-1.41,-38.11,-38.67,0,*51
1499976033.23,20711,19.38,73928.5,-1.39,-38.05,-38.43,0,*5C
1499976034.43,20712,19.38,73928.8,-1.41,-38.61,-38.85,0,*58
1499976035.66,20713,19.38,73928.5,-1.41,-38.61,-39.03,0,*56
1499976036.93,20714,19.31,73928.5,-1.39,-38.67,-39.03,0,*58
1499976038.16,20715,19.38,73934.0,-1.41,-38.67,-39.09,0,*5C
1499976039.42,20716,19.38,73934.3,-1.39,-38.43,-38.79,0,*50
1499976040.68,20717,19.38,73934.8,-1.41,-38.49,-38.91,0,*52
1499976041.93,20718,19.38,73932.8,-1.39,-38.35,-38.79,0,*5F
1499976043.16,20719,19.38,73930.8,-1.39,-38.17,-38.61,0,*57
1499976044.4,20720,19.38,73928.5,-1.39,-38.55,-38.85,0,*51
1499976045.63,20721,19.38,73934.0,-1.39,-38.55,-38.97,0,*53
1499976046.87,20722,19.31,73930.5,-1.41,-38.67,-39.23,0,*50
1499976048.12,20723,19.38,73926.0,-1.41,-38.67,-39.03,0,*53
1499976049.32,20724,19.38,73928.3,-1.41,-38.43,-38.73,0,*54
1499976050.55,20725,19.38,73926.5,-1.39,-38.61,-38.97,0,*50
1499976051.81,20726,19.38,73930.3,-1.41,-38.49,-39.03,0,*5A
1499976053.06,20727,19.31,73924.5,-1.39,-38.43,-38.79,0,*52
1499976054.29,20728,19.38,73934.5,-1.41,-38.61,-39.03,0,*5E
1499976055.54,20729,19.38,73928.5,-1.39,-38.23,-38.61,0,*53
1499976056.78,20730,19.38,73928.3,-1.41,-38.61,-38.91,0,*5D
1499976057.98,20731,19.38,73926.0,-1.41,-38.61,-39.09,0,*5C
1499976059.24,20732,19.38,73924.3,-1.39,-37.99,-38.61,0,*57
1499976060.49,20733,19.38,73930.3,-1.41,-38.11,-38.67,0,*50
1499976061.7,20734,19.38,73930.5,-1.41,-38.43,-38.85,0,*5C
1499976062.98,20735,19.38,73928.3,-1.39,-38.23,-38.79,0,*57
1499976064.23,20736,19.38,73928.5,-1.39,-38.35,-38.79,0,*53
1499976065.51,20737,19.38,73934.8,-1.39,-38.67,-39.23,0,*5B
1499976066.73,20738,19.31,73928.8,-1.41,-38.73,-39.41,0,*5A
1499976067.95,20739,19.38,73930.8,-1.41,-38.73,-39.23,0,*5F
1499976069.19,20740,19.31,73924.0,-1.39,-38.17,-38.43,0,*5B
1499976070.42,20741,19.38,73920.5,-1.41,-38.49,-38.85,0,*54
1499976071.67,20742,19.38,73922.0,-1.39,-37.63,-38.05,0,*57
1499976072.94,20743,19.38,73918.8,-1.39,-37.99,-38.35,0,*50
1499976074.17,20744,19.38,73920.3,-1.39,-37.87,-38.35,0,*58
1499976075.45,20745,19.38,73920.5,-1.35,-37.63,-38.11,0,*59
1499976076.71,20746,19.38,73924.8,-1.35,-37.93,-38.35,0,*53
1499976078.0,20747,19.31,73920.8,-1.35,-37.99,-38.49,0,*53
1499976079.28,20748,19.38,73924.0,-1.35,-38.49,-38.91,0,*5B
1499976080.51,20749,19.31,73924.0,-1.35,-38.35,-38.61,0,*5E
1499976081.77,20750,19.38,73926.0,-1.35,-38.29,-38.61,0,*5B
1499976083.03,20751,19.38,73930.0,-1.35,-38.49,-38.97,0,*55
1499976084.29,20752,19.31,73926.0,-1.35,-38.49,-38.97,0,*56
1499976085.57,20753,19.38,73928.3,-1.31,-37.93,-38.29,0,*5E
1499976086.85,20754,19.31,73926.0,-1.31,-38.29,-38.79,0,*52
1499976088.13,20755,19.31,73924.0,-1.31,-38.49,-38.79,0,*55
1499976089.39,20756,19.31,73920.0,-1.31,-38.61,-39.15,0,*57
1499976090.62,20757,19.31,73922.8,-1.35,-38.55,-38.97,0,*5E
1499976091.87,20758,19.31,73920.8,-1.35,-38.55,-38.91,0,*57
1499976093.11,20759,19.38,73926.3,-1.35,-38.17,-38.55,0,*58
1499976094.34,20760,19.38,73924.0,-1.35,-38.17,-38.55,0,*52
1499976095.57,20761,19.31,73922.8,-1.35,-38.17,-38.61,0,*54
1499976096.83,20762,19.31,73920.0,-1.35,-38.17,-38.79,0,*5E
1499976098.09,20763,19.31,73926.5,-1.31,-38.29,-38.61,0,*5F
1499976099.34,20764,19.38,73926.8,-1.31,-38.29,-38.73,0,*5B
1499976100.59,20765,19.31,73926.8,-1.31,-38.35,-38.79,0,*5D
1499976101.85,20766,19.38,73930.5,-1.35,-38.49,-38.97,0,*51
1499976103.1,20767,19.31,73926.3,-1.35,-38.49,-38.97,0,*50
1499976104.33,20768,19.31,73926.3,-1.31,-38.55,-38.97,0,*56
1499976105.56,20769,19.31,73928.5,-1.35,-38.55,-39.09,0,*55
1499976106.79,20770,19.38,73928.0,-1.35,-38.55,-39.09,0,*5D
1499976108.08,20771,19.31,73924.0,-1.35,-38.79,-39.15,0,*5F
1499976109.31,20772,19.31,73924.8,-1.35,-38.61,-39.09,0,*58
1499976110.57,20773,19.31,73928.0,-1.35,-38.55,-38.91,0,*5E
1499976111.8,20774,19.31,73926.5,-1.35,-38.55,-38.97,0,*5F
1499976113.08,20775,19.31,73926.3,-1.35,-38.79,-39.15,0,*5B
1499976114.34,20776,19.31,73924.5,-1.39,-38.23,-38.61,0,*59
1499976115.57,20777,19.31,73924.3,-1.39,-38.17,-38.55,0,*58
1499976116.8,20778,19.38,73928.5,-1.31,-38.35,-38.55,0,*5F
1499976118.06,20779,19.31,73924.0,-1.35,-38.17,-38.49,0,*57
1499976119.28,20780,19.31,73930.5,-1.31,-38.35,-38.73,0,*5C
1499976120.56,20781,19.31,73930.3,-1.31,-38.49,-38.79,0,*5C
1499976121.81,20782,19.31,73926.8,-1.31,-38.73,-39.29,0,*52
1499976123.07,20783,19.31,73924.5,-1.31,-38.49,-39.09,0,*58
1499976124.35,20784,19.38,73926.3,-1.35,-37.99,-38.49,0,*5C
1499976125.61,20785,19.38,73928.3,-1.35,-38.49,-38.97,0,*5C
1499976126.87,20786,19.38,73928.0,-1.31,-38.49,-38.97,0,*5B
1499976128.12,20787,19.38,73934.5,-1.35,-38.55,-39.15,0,*58
1499976129.38,20788,19.31,73930.3,-1.35,-38.73,-39.15,0,*53
1499976130.6,20789,19.31,73930.3,-1.35,-38.35,-38.73,0,*51
1499976131.82,20790,19.31,73928.0,-1.35,-38.35,-38.73,0,*59
1499976133.1,20791,19.31,73926.0,-1.31,-37.93,-38.29,0,*50
1499976134.33,20792,19.38,73924.8,-1.31,-38.61,-38.97,0,*54
1499976135.62,20793,19.38,73926.5,-1.35,-38.49,-38.91,0,*5D
1499976136.9,20794,19.31,73926.3,-1.31,-38.49,-39.15,0,*53
1499976138.13,20795,19.31,73924.3,-1.35,-38.55,-39.09,0,*56
1499976139.36,20796,19.38,73930.8,-1.35,-38.55,-38.97,0,*53
1499976140.6,20797,19.31,73930.8,-1.35,-38.61,-39.09,0,*53
1499976141.82,20798,19.31,73928.3,-1.35,-38.55,-38.97,0,*5D
1499976143.08,20799,19.31,73926.3,-1.35,-38.29,-38.73,0,*5D
1499976144.34,20800,19.38,73932.0,-1.35,-38.49,-39.09,0,*58
1499976145.59,20801,19.38,73932.5,-1.39,-38.61,-39.03,0,*55
1499976146.81,20802,19.31,73928.8,-1.35,-38.35,-38.73,0,*5D
1499976148.07,20803,19.31,73928.8,-1.35,-38.49,-38.97,0,*5D
1499976149.3,20804,19.31,73926.8,-1.35,-38.55,-38.97,0,*57
1499976150.56,20805,19.31,73922.5,-1.35,-38.49,-38.73,0,*51
1499976151.79,20806,19.38,73928.8,-1.35,-38.55,-39.09,0,*53
1499976153.07,20807,19.31,73924.0,-1.35,-38.49,-38.91,0,*5F
1499976154.33,20808,19.31,73928.3,-1.35,-38.61,-39.29,0,*58
1499976155.58,20809,19.31,73926.0,-1.35,-38.55,-38.91,0,*5C
1499976156.87,20810,19.31,73924.8,-1.35,-38.49,-38.91,0,*59
1499976158.1,20811,19.31,73924.8,-1.35,-38.55,-39.09,0,*55
1499976159.33,20812,19.31,73930.5,-1.39,-38.85,-39.35,0,*58
1499976160.56,20813,19.31,73928.8,-1.39,-38.85,-39.35,0,*59
1499976161.8,20814,19.31,73926.8,-1.39,-38.97,-39.53,0,*5D
1499976163.05,20815,19.31,73926.8,-1.35,-38.73,-39.29,0,*57
1499976164.31,20816,19.31,73922.3,-1.39,-38.61,-39.15,0,*54
1499976165.59,20817,19.31,73924.5,-1.39,-38.79,-39.23,0,*59
1499976166.87,20818,19.31,73922.0,-1.39,-38.79,-39.23,0,*56
1499976168.13,20819,19.31,73924.5,-1.39,-38.97,-39.59,0,*5A
1499976169.41,20820,19.31,73924.0,-1.39,-38.79,-39.41,0,*59
1499976170.63,20821,19.31,73920.5,-1.41,-38.55,-39.03,0,*5F
1499976171.88,20822,19.31,73924.3,-1.41,-38.91,-39.41,0,*52
1499976173.14,20823,19.31,73922.3,-1.39,-38.61,-39.23,0,*57
1499976174.37,20824,19.31,73918.5,-1.41,-38.49,-38.85,0,*58
1499976175.6,20825,19.31,73920.0,-1.39,-38.43,-38.97,0,*5F
1499976176.85,20826,19.31,73922.3,-1.41,-38.67,-39.03,0,*59
1499976178.1,20827,19.31,73922.0,-1.41,-38.67,-38.91,0,*52
1499976179.32,20828,19.38,73924.5,-1.41,-38.29,-38.73,0,*5B
1499976180.58,20829,19.31,73922.5,-1.39,-38.23,-38.85,0,*56
1499976181.81,20830,19.31,73924.0,-1.41,-38.85,-39.41,0,*54
1499976183.04,20831,19.31,73922.0,-1.41,-38.67,-39.09,0,*55
1499976184.26,20832,19.31,73922.8,-1.41,-38.73,-39.23,0,*5B
1499976185.54,20833,19.31,73922.0,-1.39,-38.79,-39.23,0,*5F
1499976186.79,20834,19.31,73922.5,-1.41,-38.67,-39.23,0,*58
1499976188.04,20835,19.31,73920.5,-1.39,-38.55,-39.15,0,*52
1499976189.27,20836,19.31,73926.5,-1.39,-38.85,-39.35,0,*5E
1499976190.49,20837,19.31,73926.3,-1.41,-38.73,-39.23,0,*5E
1499976191.78,20838,19.31,73924.3,-1.43,-38.29,-38.67,0,*5D
1499976193.01,20839,19.31,73916.5,-1.41,-38.61,-39.23,0,*53
1499976194.23,20840,19.31,73922.5,-1.41,-38.61,-39.23,0,*5D
1499976195.47,20841,19.31,73920.0,-1.41,-38.85,-39.29,0,*5C
1499976196.72,20842,19.31,73920.5,-1.41,-38.91,-39.41,0,*54
1499976197.97,20843,19.31,73926.0,-1.43,-38.85,-39.41,0,*52
1499976199.24,20844,19.31,73922.0,-1.43,-38.49,-38.85,0,*5C
1499976200.45,20845,19.31,73926.8,-1.41,-38.61,-39.09,0,*50
1499976201.69,20846,19.31,73924.5,-1.41,-38.67,-39.23,0,*5D
1499976202.97,20847,19.31,73928.3,-1.43,-38.67,-39.23,0,*5E
1499976204.24,20848,19.31,73926.5,-1.43,-38.49,-38.85,0,*50
1499976205.52,20849,19.31,73924.8,-1.43,-38.29,-38.67,0,*5B
1499976206.75,20850,19.31,73926.0,-1.39,-38.17,-38.61,0,*55
1499976207.99,20851,19.31,73924.3,-1.41,-38.49,-38.85,0,*5A
1499976209.22,20852,19.31,73920.5,-1.41,-38.61,-38.91,0,*56
1499976210.45,20853,19.38,73926.0,-1.41,-38.67,-39.09,0,*51
1499976211.7,20854,19.31,73926.8,-1.39,-38.35,-38.79,0,*58
1499976212.96,20855,19.38,73928.5,-1.41,-38.49,-38.91,0,*5B
1499976214.19,20856,19.31,73926.5,-1.41,-38.23,-38.61,0,*5B
1499976215.42,20857,19.31,73924.3,-1.41,-38.61,-39.03,0,*59
1499976216.67,20858,19.31,73922.8,-1.41,-38.23,-38.79,0,*5C
1499976217.93,20859,19.31,73924.8,-1.39,-38.55,-38.79,0,*53
1499976219.16,20860,19.31,73928.5,-1.41,-38.23,-38.61,0,*5E
1499976220.39,20861,19.31,73926.3,-1.41,-38.29,-38.85,0,*5F
1499976221.59,20862,19.31,73926.5,-1.41,-38.43,-38.73,0,*59
1499976222.8,20863,19.31,73926.3,-1.41,-38.43,-38.85,0,*51
1499976224.03,20864,19.31,73924.3,-1.39,-38.43,-38.85,0,*59
1499976225.26,20865,19.31,73926.8,-1.39,-38.43,-38.85,0,*58
1499976226.51,20866,19.31,73924.5,-1.39,-38.61,-39.23,0,*56
1499976227.77,20867,19.31,73926.5,-1.41,-38.49,-38.91,0,*5A
1499976229.01,20868,19.31,73920.3,-1.41,-37.87,-38.29,0,*5B
1499976230.24,20869,19.31,73926.8,-1.41,-38.23,-38.85,0,*5D
1499976231.47,20870,19.31,73924.0,-1.39,-38.55,-38.97,0,*58
1499976232.75,20871,19.31,73928.3,-1.39,-38.23,-38.67,0,*57
1499976233.95,20872,19.31,73924.0,-1.41,-38.55,-38.97,0,*55
1499976235.2,20873,19.31,73926.5,-1.41,-38.67,-39.23,0,*5B
1499976236.43,20874,19.31,73924.5,-1.39,-38.55,-38.97,0,*5C
1499976237.68,20875,19.31,73926.5,-1.39,-38.55,-39.03,0,*51
1499976238.9,20876,19.31,73924.8,-1.41,-38.73,-39.41,0,*5F
1499976240.1,20877,19.31,73924.0,-1.41,-38.73,-39.35,0,*5D
1499976241.33,20878,19.31,73928.5,-1.41,-38.61,-39.15,0,*53
1499976242.59,20879,19.31,73926.0,-1.41,-38.49,-38.91,0,*55
1499976243.79,20880,19.31,73926.8,-1.41,-38.43,-38.85,0,*5C
1499976245.08,20881,19.31,73920.0,-1.39,-37.99,-38.49,0,*5A
1499976246.31,20882,19.31,73924.8,-1.39,-38.17,-38.55,0,*5D
1499976247.51,20883,19.31,73920.0,-1.41,-38.43,-38.73,0,*56
1499976248.74,20884,19.31,73922.8,-1.39,-38.55,-38.85,0,*50
1499976249.97,20885,19.31,73922.5,-1.39,-38.35,-38.85,0,*57
1499976251.2,20886,19.31,73924.8,-1.39,-38.55,-38.97,0,*51
1499976252.48,20887,19.31,73926.8,-1.39,-38.23,-38.79,0,*51
1499976253.72,20888,19.31,73920.3,-1.39,-38.17,-38.55,0,*57
1499976254.95,20889,19.31,73922.0,-1.39,-38.17,-38.55,0,*56
1499976256.2,20890,19.31,73928.5,-1.35,-38.35,-38.91,0,*5A
1499976257.43,20891,19.31,73924.5,-1.41,-38.61,-38.91,0,*59
1499976258.68,20892,19.31,73926.3,-1.39,-38.67,-39.35,0,*5C
1499976259.95,20893,19.31,73920.3,-1.39,-38.67,-39.23,0,*5A
1499976261.21,20894,19.31,73922.8,-1.39,-38.79,-39.35,0,*55
1499976262.44,20895,19.31,73922.3,-1.41,-38.61,-38.91,0,*5D
1499976263.66,20896,19.31,73920.0,-1.41,-38.61,-39.23,0,*56
1499976264.92,20897,19.31,73924.0,-1.41,-38.49,-38.91,0,*55
1499976266.15,20898,19.31,73928.0,-1.41,-38.85,-39.41,0,*56
1499976267.38,20899,19.31,73926.8,-1.41,-38.61,-38.91,0,*51
1499976268.61,20900,19.31,73924.8,-1.41,-38.61,-39.23,0,*58
1499976269.82,20901,19.31,73926.5,-1.41,-38.61,-39.09,0,*51
1499976271.04,20902,19.31,73924.3,-1.41,-38.73,-39.41,0,*5D
1499976272.29,20903,19.31,73928.5,-1.43,-38.73,-39.23,0,*5A
1499976273.55,20904,19.31,73926.8,-1.43,-39.03,-39.47,0,*59
1499976274.8,20905,19.31,73922.8,-1.43,-38.67,-39.09,0,*51
1499976276.06,20906,19.31,73926.8,-1.43,-38.73,-39.23,0,*5F
1499976277.32,20907,19.31,73926.8,-1.43,-38.85,-39.41,0,*53
1499976278.57,20908,19.31,73924.5,-1.43,-38.61,-39.03,0,*50
1499976279.86,20909,19.31,73924.5,-1.43,-38.29,-38.67,0,*5E
1499976281.14,20910,19.31,73924.3,-1.43,-38.29,-38.67,0,*56
1499976282.4,20911,19.31,73926.5,-1.43,-38.73,-39.29,0,*53
1499976283.65,20912,19.31,73924.8,-1.43,-38.73,-39.23,0,*5A
1499976284.89,20913,19.31,73924.5,-1.45,-38.17,-38.79,0,*51
1499976286.14,20914,19.31,73926.3,-1.45,-38.67,-39.15,0,*5A
1499976287.38,20915,19.31,73920.5,-1.45,-38.35,-38.67,0,*58
1499976288.66,20916,19.31,73920.3,-1.43,-38.11,-38.67,0,*5B
1499976289.91,20917,19.31,73928.8,-1.43,-38.43,-38.91,0,*54
1499976291.2,20918,19.31,73926.0,-1.43,-38.11,-38.49,0,*59
1499976292.41,20919,19.31,73926.5,-1.41,-37.87,-38.43,0,*50
1499976293.67,20920,19.31,73926.8,-1.41,-37.93,-38.29,0,*53
1499976294.91,20921,19.31,73924.5,-1.41,-37.87,-38.29,0,*57
1499976296.14,20922,19.31,73922.8,-1.41,-37.93,-38.43,0,*5D
1499976297.4,20923,19.31,73926.3,-1.39,-37.69,-38.17,0,*57
1499976298.62,20924,19.31,73922.0,-1.41,-37.75,-38.11,0,*54
1499976299.91,20925,19.31,73926.3,-1.39,-37.69,-38.29,0,*5C
1499976301.17,20926,19.31,73926.8,-1.39,-37.99,-38.35,0,*5D
1499976302.4,20927,19.31,73926.0,-1.39,-38.05,-38.55,0,*50
1499976303.64,20928,19.31,73922.8,-1.39,-38.05,-38.55,0,*5F
1499976304.92,20929,19.31,73922.5,-1.39,-38.23,-38.67,0,*5B
1499976306.15,20930,19.31,73920.8,-1.41,-38.55,-39.15,0,*59
1499976307.4,20931,19.31,73920.0,-1.39,-38.55,-39.03,0,*50
1499976308.63,20932,19.31,73922.8,-1.39,-38.55,-38.97,0,*5F
1499976309.86,20933,19.31,73928.3,-1.39,-38.43,-38.85,0,*5A
1499976311.09,20934,19.31,73922.0,-1.41,-38.49,-38.85,0,*58
1499976312.33,20935,19.31,73920.8,-1.41,-38.29,-38.85,0,*5F
1499976313.61,20936,19.31,73924.3,-1.39,-38.23,-38.79,0,*5A
1499976314.86,20937,19.31,73926.8,-1.39,-38.43,-38.79,0,*5D
1499976316.12,20938,19.31,73922.8,-1.39,-38.55,-39.15,0,*5E
1499976317.37,20939,19.31,73922.0,-1.39,-38.43,-39.03,0,*5F
1499976318.63,20940,19.31,73924.0,-1.39,-37.99,-38.43,0,*5C
1499976319.86,20941,19.31,73918.0,-1.39,-38.35,-38.85,0,*5E
1499976321.12,20942,19.31,73920.0,-1.39,-38.61,-39.03,0,*53
1499976322.37,20943,19.31,73922.8,-1.39,-38.55,-39.03,0,*55
1499976323.62,20944,19.31,73926.0,-1.39,-38.55,-39.15,0,*55
1499976324.85,20945,19.31,73926.0,-1.41,-38.61,-39.03,0,*5B
1499976326.08,20946,19.31,73926.3,-1.41,-38.43,-38.91,0,*52
1499976327.33,20947,19.31,73922.3,-1.39,-38.79,-39.35,0,*5A
1499976328.59,20948,19.31,73920.3,-1.39,-38.61,-39.15,0,*5E
1499976329.82,20949,19.31,73922.0,-1.41,-38.61,-39.03,0,*57
1499976331.02,20950,19.31,73926.3,-1.41,-38.61,-39.09,0,*55
1499976332.3,20951,19.31,73924.5,-1.39,-38.23,-38.67,0,*54
1499976333.53,20952,19.31,73920.3,-1.41,-38.85,-39.41,0,*51
1499976334.75,20953,19.31,73922.0,-1.41,-39.03,-39.47,0,*59
1499976335.98,20954,19.31,73920.3,-1.41,-38.91,-39.47,0,*54
1499976337.25,20955,19.31,73926.0,-1.43,-38.67,-39.29,0,*56
1499976338.53,20956,19.31,73924.8,-1.43,-38.67,-39.29,0,*55
1499976339.79,20957,19.31,73924.3,-1.45,-38.67,-39.23,0,*58
1499976341.05,20958,19.31,73920.8,-1.43,-38.85,-39.29,0,*57
1499976342.32,20959,19.31,73918.3,-1.43,-38.91,-39.41,0,*5D
1499976343.56,20960,19.31,73920.5,-1.43,-38.43,-38.85,0,*51
1499976344.84,20961,19.31,73926.3,-1.43,-38.67,-39.23,0,*5B
1499976346.11,20962,19.31,73922.5,-1.43,-38.67,-39.03,0,*5A
1499976347.37,20963,19.31,73924.5,-1.45,-38.79,-39.29,0,*5A
1499976348.63,20964,19.31,73920.8,-1.43,-38.67,-39.09,0,*56
1499976349.91,20965,19.31,73924.3,-1.43,-38.67,-39.23,0,*5F
1499976351.14,20966,19.31,73924.8,-1.45,-38.73,-39.29,0,*55
1499976352.37,20967,19.31,73924.3,-1.45,-38.91,-39.47,0,*50
1499976353.59,20968,19.31,73926.0,-1.45,-38.91,-39.35,0,*5A
1499976354.82,20969,19.31,73926.8,-1.45,-38.97,-39.53,0,*5D
1499976356.08,20970,19.31,73920.3,-1.45,-38.49,-38.79,0,*5F
1499976357.32,20971,19.31,73926.8,-1.45,-38.67,-39.09,0,*54
1499976358.56,20972,19.31,73924.8,-1.45,-38.49,-38.97,0,*5D
1499976359.79,20973,19.31,73920.3,-1.47,-38.85,-39.35,0,*57
1499976361.07,20974,19.31,73922.0,-1.47,-38.79,-39.23,0,*54
1499976362.31,20975,19.31,73920.8,-1.45,-38.73,-39.15,0,*58
1499976363.51,20976,19.31,73916.3,-1.45,-38.73,-39.09,0,*56
1499976364.78,20977,19.31,73920.8,-1.45,-38.79,-39.15,0,*50
1499976366.01,20978,19.31,73920.3,-1.45,-38.55,-38.91,0,*5C
1499976367.27,20979,19.31,73920.0,-1.45,-38.67,-39.15,0,*51
1499976368.53,20980,19.31,73920.3,-1.47,-38.61,-39.15,0,*53
1499976369.76,20981,19.31,73924.0,-1.47,-38.55,-38.97,0,*5E
1499976371.02,20982,19.31,73922.5,-1.47,-38.73,-39.23,0,*57
1499976372.28,20983,19.31,73918.8,-1.47,-38.23,-38.61,0,*54
1499976373.53,20984,19.31,73920.5,-1.47,-38.55,-39.03,0,*57
1499976374.76,20985,19.31,73922.0,-1.47,-38.85,-39.35,0,*5E
1499976376.02,20986,19.31,73920.0,-1.47,-38.73,-39.15,0,*56
1499976377.28,20987,19.31,73918.5,-1.47,-38.55,-39.03,0,*54
1499976378.53,20988,19.31,73920.3,-1.49,-38.73,-39.15,0,*56
1499976379.75,20989,19.31,73920.8,-1.49,-38.43,-38.97,0,*5F
1499976381.02,20990,19.31,73926.5,-1.47,-37.99,-38.55,0,*5F
1499976382.25,20991,19.31,73922.3,-1.47,-38.43,-38.85,0,*5B
1499976383.51,20992,19.31,73922.0,-1.49,-38.43,-38.79,0,*55
1499976384.74,20993,19.31,73926.5,-1.47,-38.43,-38.97,0,*5A
1499976385.98,20994,19.31,73924.3,-1.47,-38.43,-38.85,0,*5E
1499976387.23,20995,19.31,73928.0,-1.47,-38.73,-39.23,0,*51
1499976388.49,20996,19.31,73924.3,-1.47,-38.73,-39.15,0,*57
1499976389.72,20997,19.31,73926.0,-1.47,-38.43,-38.85,0,*5D
1499976390.96,20998,19.31,73920.0,-1.47,-38.17,-38.55,0,*5E
1499976392.21,20999,19.31,73922.5,-1.47,-38.73,-39.03,0,*5F
1499976393.47,21000,19.31,73922.8,-1.47,-38.73,-39.23,0,*55
1499976394.75,21001,19.31,73926.5,-1.47,-38.79,-39.23,0,*5E
1499976396.0,21002,19.31,73928.3,-1.47,-38.73,-39.23,0,*57
1499976397.28,21003,19.31,73924.0,-1.49,-38.79,-39.23,0,*52
1499976398.54,21004,19.31,73924.5,-1.47,-38.61,-39.03,0,*50
1499976399.82,21005,19.31,73924.0,-1.49,-38.79,-39.23,0,*54
1499976401.04,21006,19.31,73926.3,-1.49,-38.85,-39.35,0,*53
1499976402.27,21007,19.31,73924.5,-1.49,-38.55,-38.97,0,*56
1499976403.52,21008,19.31,73926.3,-1.49,-38.73,-39.15,0,*56
1499976404.78,21009,19.31,73926.5,-1.47,-38.73,-39.15,0,*59
1499976406.0,21010,19.31,73926.3,-1.47,-38.73,-39.35,0,*53
1499976407.28,21011,19.31,73926.8,-1.49,-38.79,-39.23,0,*51
1499976408.53,21012,19.31,73924.3,-1.49,-38.79,-39.35,0,*55
1499976409.78,21013,19.31,73926.3,-1.49,-38.79,-39.35,0,*54
1499976411.06,21014,19.31,73924.3,-1.49,-38.79,-39.41,0,*50
1499976412.29,21015,19.31,73928.8,-1.49,-38.85,-39.35,0,*51
1499976413.56,21016,19.31,73926.8,-1.49,-38.79,-39.23,0,*56
1499976414.82,21017,19.31,73926.8,-1.47,-38.55,-39.03,0,*55
1499976416.07,21018,19.31,73924.3,-1.49,-38.79,-39.35,0,*5F
1499976417.3,21019,19.31,73926.8,-1.49,-38.43,-38.85,0,*5D
1499976418.55,21020,19.31,73924.5,-1.51,-38.79,-39.41,0,*5E
1499976419.81,21021,19.31,73924.0,-1.51,-39.03,-39.59,0,*5A
1499976421.05,21022,19.31,73922.5,-1.53,-39.09,-39.65,0,*5E
1499976422.31,21023,19.31,73926.3,-1.53,-39.03,-39.65,0,*55
1499976423.57,21024,19.31,73924.8,-1.51,-38.91,-39.59,0,*55
1499976424.82,21025,19.31,73920.8,-1.51,-38.91,-39.29,0,*53
1499976426.06,21026,19.31,73920.5,-1.53,-38.43,-38.85,0,*5A
1499976427.31,21027,19.31,73922.8,-1.53,-38.43,-39.03,0,*54
1499976428.54,21028,19.31,73926.8,-1.51,-38.85,-39.41,0,*55
1499976429.79,21029,19.31,73924.5,-1.51,-38.79,-39.23,0,*53
1499976431.08,21030,19.31,73924.0,-1.53,-38.29,-38.67,0,*5D
1499976432.31,21031,19.31,73924.5,-1.51,-38.61,-39.03,0,*51
1499976433.56,21032,19.31,73926.5,-1.51,-38.79,-39.23,0,*59
1499976434.82,21033,19.31,73926.0,-1.51,-38.79,-39.03,0,*5A
1499976436.08,21034,19.31,73928.5,-1.51,-38.49,-38.91,0,*54
1499976437.34,21035,19.31,73928.0,-1.53,-38.61,-38.91,0,*5D
1499976438.59,21036,19.31,73930.5,-1.51,-38.23,-38.67,0,*53
1499976439.8,21037,19.31,73926.5,-1.51,-38.61,-39.09,0,*5D
1499976441.01,21038,19.31,73924.3,-1.51,-38.43,-38.85,0,*57
1499976442.27,21039,19.31,73926.3,-1.53,-38.05,-38.49,0,*56
1499976443.52,21040,19.31,73926.0,-1.51,-38.11,-38.67,0,*53
1499976444.75,21041,19.31,73928.3,-1.51,-38.29,-38.85,0,*55
1499976445.96,21042,19.31,73930.3,-1.51,-38.43,-38.85,0,*5A
1499976447.19,21043,19.31,73928.8,-1.51,-37.75,-38.29,0,*57
1499976448.46,21044,19.31,73926.0,-1.47,-37.81,-38.43,0,*50
1499976449.69,21045,19.31,73926.3,-1.49,-38.17,-38.73,0,*5C
1499976450.95,21046,19.31,73930.8,-1.49,-37.99,-38.55,0,*52
1499976452.21,21047,19.31,73932.3,-1.47,-38.17,-38.79,0,*5A
1499976453.44,21048,19.31,73930.5,-1.49,-38.05,-38.55,0,*56
1499976454.67,21049,19.31,73926.8,-1.49,-38.17,-38.61,0,*53
1499976455.89,21050,19.31,73930.5,-1.49,-38.17,-38.73,0,*58
1499976457.12,21051,19.31,73930.3,-1.49,-38.17,-38.55,0,*5D
1499976458.37,21052,19.31,73926.0,-1.49,-38.23,-38.73,0,*5D
1499976459.6,21053,19.31,73924.8,-1.49,-38.43,-38.97,0,*50
1499976460.83,21054,19.31,73924.3,-1.47,-38.05,-38.73,0,*51
1499976462.06,21055,19.31,73926.0,-1.49,-38.43,-38.85,0,*55
1499976463.29,21056,19.31,73928.3,-1.49,-37.87,-38.55,0,*5C
1499976464.53,21057,19.31,73926.8,-1.47,-38.05,-38.61,0,*51
1499976465.76,21058,19.31,73924.3,-1.49,-38.17,-38.61,0,*53
1499976467.02,21059,19.31,73924.5,-1.47,-38.35,-38.79,0,*55
1499976468.28,21060,19.31,73922.5,-1.47,-38.35,-38.79,0,*5F
1499976469.53,21061,19.31,73926.0,-1.47,-38.61,-39.03,0,*53
1499976470.79,21062,19.31,73926.5,-1.47,-38.55,-39.15,0,*50
1499976472.05,21063,19.31,73926.5,-1.47,-38.73,-39.23,0,*50
1499976473.31,21064,19.31,73924.0,-1.47,-38.61,-39.15,0,*51
1499976474.57,21065,19.31,73926.0,-1.47,-38.61,-39.15,0,*50
1499976475.8,21066,19.31,73924.0,-1.47,-38.43,-38.97,0,*58
1499976477.05,21067,19.31,73924.5,-1.49,-38.55,-39.03,0,*5C
1499976478.28,21068,19.31,73922.0,-1.49,-38.43,-38.85,0,*5B
1499976479.54,21069,19.31,73920.3,-1.47,-38.61,-39.15,0,*5C
1499976480.8,21070,19.31,73924.0,-1.47,-38.79,-39.35,0,*5F
1499976482.04,21071,19.31,73924.3,-1.49,-38.97,-39.41,0,*53
1499976483.29,21072,19.31,73926.0,-1.49,-38.85,-39.41,0,*53
1499976484.52,21073,19.31,73926.3,-1.49,-38.61,-38.97,0,*52
1499976485.78,21074,19.31,73920.8,-1.49,-38.23,-38.61,0,*5A
1499976487.01,21075,19.31,73922.8,-1.47,-38.55,-38.85,0,*5E
1499976488.26,21076,19.31,73922.8,-1.49,-38.73,-39.15,0,*5F
1499976489.51,21077,19.31,73920.5,-1.49,-38.79,-39.35,0,*56
1499976490.74,21078,19.31,73920.8,-1.49,-38.55,-38.85,0,*5D
1499976492.02,21079,19.31,73926.0,-1.49,-38.23,-38.79,0,*5E
1499976493.28,21080,19.31,73922.8,-1.49,-37.99,-38.43,0,*5F
1499976494.51,21081,19.31,73922.5,-1.49,-38.17,-38.61,0,*57
1499976495.74,21082,19.31,73924.8,-1.49,-38.05,-38.55,0,*50
1499976496.98,21083,19.31,73922.5,-1.49,-38.05,-38.55,0,*51
1499976498.23,21084,19.31,73924.5,-1.47,-38.61,-39.03,0,*58